Location: Appletree Creek
(38.7363°N, 122.6833°W)
Time: 09:48:38
(UTC+00:00)

Cosmos 2061 Rocket - Pass Details

Date: 18 September 2020
Orbit: 966 x 1012 km, 82.9° (Epoch: 21 October)

Event Time Altitude Azimuth Distance (km) Brightness Sun altitude
Rises 13:17:25 0° 354° (N) 3,749 7.1 -8.2°
Reaches altitude 10° 13:19:58 10° 356° (N) 2,797 6.5 -7.7°
Maximum altitude 13:26:25 78° 83° (E) 1,036 4.3 -6.5°
Drops below altitude 10° 13:32:50 10° 170° (S) 2,779 6.5 -5.2°
Sets 13:35:21 0° 171° (S) 3,722 7.1 -4.7°
